{"data":{"norad_id":44709,"intl_designator":"2019-073A","name":"BEIDOU-3 IGSO-3 (C40)","alt_names":[],"object_type":"PAYLOAD","status":"ACTIVE","operator":null,"country":"PRC","launch_date":"2019-11-04","launch_site_code":"XICLF","launch_vehicle":null,"mission":null,"orbit_class":"UNKNOWN","rcs_meters":null,"size_class":null,"mass_kg":null,"dimensions":null,"purposes":["comms","nav"],"wikipedia_slug":null,"has_3d_model":false,"image_url":null,"decayed_at":null,"tle_current":{"epoch":"2026-09-17T10:58:06.526272Z","epoch_age_seconds":277304,"freshness":"STALE","line1":"1 44709U 19073A   26260.45701998 -.00000154  00000+0  00000+0 0  9992","line2":"2 44709  54.6463 279.8914 0046811 198.1327 161.7370  1.00262156 25381","mean_motion":1.00262156,"eccentricity":0.0046811,"inclination_deg":54.6463,"raan_deg":279.8914,"arg_perigee_deg":198.1327,"mean_anomaly_deg":161.737,"bstar":0,"rev_number":2538,"period_min":1436.2348242342,"perigee_km":35591.904571705,"apogee_km":35986.684499227,"semimajor_km":42167.431535466,"source":"CELESTRAK","updated_at":"2026-09-20T09:00:46.713082Z"}}}